Satellite: AUBIESAT Catalog number: 37854 Epoch time: 13255.27203273 Element set: 582 Inclination: 101.7030 deg RA of node: 150.3295 deg Eccentricity: 0.0232865 Arg of perigee: 135.9554 deg Mean anomaly: 345.0875 deg Mean motion: 14.85008312 rev/day Decay rate: 3.954e-05 rev/day^2 Epoch rev: 10138 Checksum: 285
Satellite: HRBE Catalog number: 37855 Epoch time: 13254.67849758 Element set: 587 Inclination: 101.7030 deg RA of node: 149.1527 deg Eccentricity: 0.0233953 Arg of perigee: 138.2813 deg Mean anomaly: 278.2179 deg Mean motion: 14.84636974 rev/day Decay rate: 2.836e-05 rev/day^2 Epoch rev: 10128 Checksum: 336
Satellite: RS-39 Catalog number: 38051 Epoch time: 13255.88965115 Element set: 786 Inclination: 051.6348 deg RA of node: 146.5149 deg Eccentricity: 0.0010258 Arg of perigee: 216.7196 deg Mean anomaly: 220.8334 deg Mean motion: 15.34957600 rev/day Decay rate: 1.1227e-04 rev/day^2 Epoch rev: 9124 Checksum: 313
Satellite: E-STAR Catalog number: 38079 Epoch time: 13255.63217211 Element set: 441 Inclination: 069.4748 deg RA of node: 331.5415 deg Eccentricity: 0.0579718 Arg of perigee: 020.3038 deg Mean anomaly: 123.8929 deg Mean motion: 14.54800204 rev/day Decay rate: 4.4742e-04 rev/day^2 Epoch rev: 8242 Checksum: 295
Satellite: GOLIAT Catalog number: 38085 Epoch time: 13255.61392506 Element set: 372 Inclination: 069.4766 deg RA of node: 334.5035 deg Eccentricity: 0.0589653 Arg of perigee: 021.8573 deg Mean anomaly: 340.6694 deg Mean motion: 14.52314782 rev/day Decay rate: 3.6612e-04 rev/day^2 Epoch rev: 8234 Checksum: 318
Satellite: HORYU-2 Catalog number: 38340 Epoch time: 13255.10017094 Element set: 608 Inclination: 098.2248 deg RA of node: 203.5488 deg Eccentricity: 0.0012779 Arg of perigee: 344.3559 deg Mean anomaly: 015.7271 deg Mean motion: 14.71146847 rev/day Decay rate: 9.80e-06 rev/day^2 Epoch rev: 7089 Checksum: 311
Satellite: RS-40 Catalog number: 38736 Epoch time: 13255.09127304 Element set: 371 Inclination: 082.4755 deg RA of node: 100.9488 deg Eccentricity: 0.0021732 Arg of perigee: 134.7883 deg Mean anomaly: 225.4973 deg Mean motion: 12.42870764 rev/day Decay rate: 1.0e-07 rev/day^2 Epoch rev: 5104 Checksum: 289
Satellite: PROITERES Catalog number: 38756 Epoch time: 13255.73557497 Element set: 121 Inclination: 098.2477 deg RA of node: 334.3679 deg Eccentricity: 0.0012328 Arg of perigee: 181.4147 deg Mean anomaly: 178.7027 deg Mean motion: 14.74326081 rev/day Decay rate: 3.66e-06 rev/day^2 Epoch rev: 5429 Checksum: 322
Satellite: RAIKO Catalog number: 38852 Epoch time: 13218.07382584 Element set: 340 Inclination: 051.6160 deg RA of node: 184.0336 deg Eccentricity: 0.0004489 Arg of perigee: 261.9162 deg Mean anomaly: 100.6538 deg Mean motion: 16.48474690 rev/day Decay rate: 2.4681979e-01 rev/day^2 Epoch rev: 4784 Checksum: 326
Satellite: FITSAT 1 Catalog number: 38853 Epoch time: 13184.86912902 Element set: 315 Inclination: 051.6252 deg RA of node: 351.6077 deg Eccentricity: 0.0011722 Arg of perigee: 245.9321 deg Mean anomaly: 114.2104 deg Mean motion: 16.39337660 rev/day Decay rate: 6.638326e-02 rev/day^2 Epoch rev: 4270 Checksum: 289
Satellite: TechEdSat Catalog number: 38854 Epoch time: 13124.93253577 Element set: 290 Inclination: 051.6449 deg RA of node: 297.0261 deg Eccentricity: 0.0010505 Arg of perigee: 310.8629 deg Mean anomaly: 049.0629 deg Mean motion: 16.38844728 rev/day Decay rate: 1.1592855e-01 rev/day^2 Epoch rev: 3329 Checksum: 325
Satellite: F 1 Catalog number: 38855 Epoch time: 13129.77714356 Element set: 287 Inclination: 051.5085 deg RA of node: 272.4145 deg Eccentricity: 0.0008326 Arg of perigee: 194.2908 deg Mean anomaly: 166.5495 deg Mean motion: 16.49710473 rev/day Decay rate: 2.7424026e-01 rev/day^2 Epoch rev: 3394 Checksum: 332
Satellite: WeWish Catalog number: 38856 Epoch time: 13069.98095549 Element set: 248 Inclination: 051.6166 deg RA of node: 215.0521 deg Eccentricity: 0.0008325 Arg of perigee: 316.0438 deg Mean anomaly: 044.8765 deg Mean motion: 16.41348316 rev/day Decay rate: 1.6701328e-01 rev/day^2 Epoch rev: 2458 Checksum: 318
Satellite: OSSI-1 Catalog number: 39131 Epoch time: 13188.41684431 Element set: 8 Inclination: 064.8841 deg RA of node: 114.8425 deg Eccentricity: 0.0051126 Arg of perigee: 026.6892 deg Mean anomaly: 350.0589 deg Mean motion: 16.22925119 rev/day Decay rate: 1.502874e-02 rev/day^2 Epoch rev: 1237 Checksum: 296
Satellite: BEESAT-3 Catalog number: 39134 Epoch time: 13255.60562485 Element set: 349 Inclination: 064.8775 deg RA of node: 293.9152 deg Eccentricity: 0.0003242 Arg of perigee: 223.1372 deg Mean anomaly: 267.4520 deg Mean motion: 15.00917863 rev/day Decay rate: 2.151e-05 rev/day^2 Epoch rev: 2194 Checksum: 290
Satellite: BEESAT-2 Catalog number: 39136 Epoch time: 13255.60926799 Element set: 343 Inclination: 064.8778 deg RA of node: 293.9311 deg Eccentricity: 0.0003331 Arg of perigee: 219.3699 deg Mean anomaly: 272.6575 deg Mean motion: 15.00828186 rev/day Decay rate: 1.936e-05 rev/day^2 Epoch rev: 2194 Checksum: 332
/EX
participants (1)
-
Ray Hoad